GW1765 Weather Reports


Display with metric or nautical units.
time (UTC)temp
F
wind
direction
speed
MPH
gust
MPH
rain 1hr
in
rain 24hr
in
rain mn
in
humidity
%
barometer
mb
20260503032149 60 270 2.0 4.0 0.00 0.00 0.00 68 1034.5
20260503031107 60 311 4.0 8.0 0.00 0.00 0.00 65 1034.4
20260503030105 62 308 4.0 8.0 0.00 0.00 0.00 65 1034.4
20260503025056 62 288 4.0 8.0 0.00 0.00 0.00 66 1034.4
20260503024054 63 209 2.0 8.0 0.00 0.00 0.00 65 1034.5
20260503023052 63 250 2.0 4.0 0.00 0.00 0.00 66 1034.5
20260503022106 63 243 3.0 6.0 0.00 0.00 0.00 67 1034.6
20260503021044 62 264 2.0 6.0 0.00 0.00 0.00 68 1034.7
20260503020039 61 301 4.0 7.0 0.00 0.00 0.00 69 1034.8
20260503015032 61 308 5.0 8.0 0.00 0.00 0.00 67 1034.8
20260503014031 62 291 6.0 8.0 0.00 0.00 0.00 63 1034.8
20260503013050 63 325 7.0 10.0 0.00 0.00 0.00 61 1034.9
20260503012020 64 315 6.0 9.0 0.00 0.00 0.00 59 1034.9
20260503011018 64 318 6.0 9.0 0.00 0.00 0.00 58 1035.0
20260503010015 64 317 6.0 9.0 0.00 0.00 0.00 57 1035.2
20260503005108 65 319 7.0 9.0 0.00 0.00 0.00 55 1035.3
20260503004106 66 306 4.0 9.0 0.00 0.00 0.00 59 1035.5
20260503003104 65 326 5.0 8.0 0.00 0.00 0.00 58 1035.6
20260503002057 65 331 5.0 9.0 0.00 0.00 0.00 57 1035.9
20260503001054 64 325 4.0 5.0 0.00 0.00 0.00 58 1036.0
20260503000052 64 322 3.0 7.0 0.00 0.00 0.00 60 1036.2
20260502235046 62 318 4.0 6.0 0.00 0.00 0.00 63 1036.4
20260502234044 63 309 3.0 4.0 0.00 0.00 0.00 61 1036.6
20260502233041 63 345 3.0 8.0 0.00 0.00 0.00 62 1036.6
20260502232032 61 339 3.0 4.0 0.00 0.00 0.00 63 1036.7
20260502231029 62 307 4.0 5.0 0.00 0.00 0.00 61 1036.8
20260502230027 64 329 4.0 8.0 0.00 0.00 0.00 56 1036.8
20260502225019 64 256 1.0 4.0 0.00 0.00 0.00 60 1036.9
20260502224039 63 309 3.0 4.0 0.00 0.00 0.00 60 1036.9
20260502223115 65 259 1.0 4.0 0.00 0.00 0.00 58 1037.0
20260502222110 65 232 2.0 4.0 0.00 0.00 0.00 60 1037.1
20260502221107 62 90 1.0 2.0 0.00 0.00 0.00 63 1037.1
20260502220125 61 75 3.0 5.0 0.00 0.00 0.00 64 1037.2
20260502215115 61 58 2.0 4.0 0.00 0.00 0.00 66 1037.3
20260502214053 61 78 2.0 4.0 0.00 0.00 0.00 65 1037.3
20260502213051 61 90 2.0 4.0 0.00 0.00 0.00 68 1037.3
20260502212104 59 88 1.0 4.0 0.00 0.00 0.00 71 1037.3
20260502211041 56 65 3.0 5.0 0.00 0.00 0.00 69 1037.3
20260502210033 57 70 3.0 6.0 0.00 0.00 0.00 66 1037.4
20260502205030 58 74 3.0 6.0 0.00 0.00 0.00 67 1037.3
20260502204029 59 48 2.0 4.0 0.00 0.00 0.00 73 1037.3
20260502203042 58 86 2.0 5.0 0.00 0.00 0.00 84 1037.2
20260502202020 54 89 2.0 4.0 0.00 0.00 0.00 92 1037.2
20260502201016 51 83 2.0 3.0 0.00 0.00 0.00 93 1037.1
20260502200108 47 73 2.0 4.0 0.00 0.00 0.00 92 1037.0
20260502195106 46 109 1.0 3.0 0.00 0.00 0.00 92 1036.9
20260502194105 46 78 3.0 4.0 0.00 0.00 0.00 92 1036.8
20260502193056 46 78 2.0 3.0 0.00 0.00 0.00 92 1036.7
20260502192055 47 67 3.0 8.0 0.00 0.00 0.00 92 1036.7
20260502191052 46 90 6.0 9.0 0.00 0.00 0.00 92 1036.6
20260502190044 46 113 5.0 8.0 0.00 0.00 0.00 92 1036.6
20260502185043 46 84 2.0 4.0 0.00 0.00 0.00 92 1036.6
20260502184040 46 81 3.0 6.0 0.00 0.00 0.00 92 1036.6
20260502182032 46 74 2.0 4.0 0.00 0.00 0.00 92 1036.7
20260502181027 46 98 3.0 7.0 0.00 0.00 0.00 93 1036.6
20260502164114 45 90 3.0 4.0 0.00 0.00 0.00 95 1036.5
20260502163046 45 94 4.0 5.0 0.00 0.00 0.00 95 1036.5
20260502162102 45 95 3.0 6.0 0.00 0.00 0.00 95 1036.5
20260502161040 45 90 3.0 5.0 0.00 0.00 0.00 95 1036.6
20260502152018 45 93 2.0 4.0 0.00 0.00 0.00 95 1036.6
20260502151037 45 90 3.0 5.0 0.00 0.00 0.00 95 1036.6
20260502150108 45 93 2.0 4.0 0.00 0.00 0.00 96 1036.7
20260502123109 46 87 3.0 6.0 0.00 0.00 0.00 92 1036.2
20260502122107 46 91 3.0 6.0 0.00 0.00 0.00 92 1036.2
20260502121124 45 100 3.0 5.0 0.00 0.00 0.00 94 1036.1
20260502115053 46 61 2.0 4.0 0.00 0.00 0.00 91 1036.0
20260502114052 46 94 1.0 2.0 0.00 0.00 0.00 91 1036.0
20260502113044 46 90 2.0 4.0 0.00 0.00 0.00 91 1035.9
20260502112041 47 95 2.0 4.0 0.00 0.00 0.00 91 1035.9
20260502111039 47 99 3.0 4.0 0.00 0.00 0.00 91 1035.9
20260502110031 47 90 2.0 4.0 0.00 0.00 0.00 91 1035.9
20260502105030 47 94 2.0 4.0 0.00 0.00 0.00 91 1035.9
20260502104049 47 85 2.0 4.0 0.00 0.00 0.00 91 1035.9
20260502103019 47 93 3.0 4.0 0.00 0.00 0.00 91 1035.8
20260502102037 47 80 5.0 7.0 0.00 0.00 0.00 91 1035.8
20260502101017 47 100 3.0 5.0 0.00 0.00 0.00 91 1035.7
20260502100108 47 77 3.0 5.0 0.00 0.00 0.00 91 1035.6
20260502091052 47 86 2.0 3.0 0.00 0.00 0.00 90 1035.1
20260502071103 51 93 2.0 3.0 0.00 0.00 0.00 84 1034.5
20260502070055 51 90 2.0 4.0 0.00 0.00 0.00 82 1034.4
20260502065053 52 90 3.0 4.0 0.00 0.00 0.00 79 1034.3
20260502064051 52 81 2.0 4.0 0.00 0.00 0.00 76 1034.1
20260502063125 52 62 1.0 2.0 0.00 0.00 0.00 73 1034.0
20260502062101 53 135 1.0 2.0 0.00 0.00 0.00 71 1033.8
20260502061101 54 135 1.0 2.0 0.00 0.00 0.00 70 1033.7
20260502060110 56 135 0.0 2.0 0.00 0.00 0.00 61 1033.8
20260502055107 59 135 0.0 2.0 0.00 0.00 0.00 59 1033.8
20260502054105 62 167 1.0 3.0 0.00 0.00 0.00 56 1033.6
20260502053103 66 206 2.0 3.0 0.00 0.00 0.00 51 1033.7
20260502052101 69 199 2.0 4.0 0.00 0.00 0.00 50 1033.6
20260502051101 71 221 3.0 4.0 0.00 0.00 0.00 49 1033.6
20260502050057 73 217 3.0 5.0 0.00 0.00 0.00 46 1033.5
20260502045056 73 229 4.0 5.0 0.00 0.00 0.00 43 1033.5
20260502044055 74 224 4.0 7.0 0.00 0.00 0.00 43 1033.6
20260502043051 74 230 5.0 8.0 0.00 0.00 0.00 44 1033.7
20260502042049 74 221 4.0 5.0 0.00 0.00 0.00 44 1033.7
20260502041047 73 246 5.0 8.0 0.00 0.00 0.00 44 1033.6
20260502040044 75 235 4.0 7.0 0.00 0.00 0.00 42 1033.6
20260502035042 76 215 5.0 8.0 0.00 0.00 0.00 41 1033.7
20260502034042 77 244 5.0 8.0 0.00 0.00 0.00 41 1033.7
20260502033100 76 228 4.0 6.0 0.00 0.00 0.00 42 1033.8